Location: Newark
(62.0667°S, 149.1667°W)
Time: 15:58:14
(UTC+00:00)

Envisat - Visible Passes

Search period start: 23 October 2019 00:00
Search period end: 02 November 2019 00:00
Orbit: 764 x 766 km, 98.1° (Epoch: 23 October)

Date Brightness Start Highest point End Pass type
(mag) Time Alt. Az. Time Alt. Az. Time Alt. Az.
23 Oct 4.9 06:47:32 10° S 06:52:14 36° SW 06:56:54 10° WNW visible
23 Oct 6.1 08:27:15 10° S 08:30:03 15° SSW 08:32:50 10° WSW visible
23 Oct 6.7 11:43:15 10° SSE 11:44:08 10° SSE 11:45:01 10° S visible
24 Oct 4.0 06:10:36 10° SSE 06:15:40 55° WSW 06:20:41 10° NW visible
24 Oct 5.9 07:50:11 10° S 07:53:50 20° SW 07:57:29 10° W visible
24 Oct 6.7 09:30:52 10° SSW 09:31:10 10° SSW 09:31:29 10° SSW visible
24 Oct 6.2 12:42:18 10° ESE 12:45:17 16° SSE 12:48:15 10° S visible
25 Oct 5.4 07:13:10 10° S 07:17:30 28° SW 07:21:49 10° WNW visible
25 Oct 6.3 08:53:03 10° S 08:55:06 12° SSW 08:57:10 10° SW visible
25 Oct 6.4 12:07:12 10° SE 12:09:08 12° SSE 12:11:05 10° S visible
26 Oct 4.6 06:36:13 10° SSE 06:41:02 41° SW 06:45:50 10° NW visible
26 Oct 6.1 08:15:54 10° S 08:18:57 16° SSW 08:22:01 10° WSW visible
27 Oct 5.8 07:38:50 10° S 07:42:43 22° SW 07:46:34 10° W visible
27 Oct 6.6 09:19:03 10° S 09:20:07 11° SSW 09:21:12 10° SSW visible
27 Oct 6.2 12:31:30 10° ESE 12:34:11 14° SSE 12:36:53 10° S visible
28 Oct 5.2 07:01:50 10° S 07:06:21 31° SW 07:10:48 10° WNW visible
28 Oct 6.2 08:41:39 10° S 08:44:02 13° SSW 08:46:25 10° SW visible
28 Oct 6.5 11:56:32 10° SE 11:58:05 11° SSE 11:59:38 10° S visible
29 Oct 4.4 06:24:54 10° SSE 06:29:50 46° WSW 06:34:44 10° NW visible
29 Oct 6.0 08:04:32 10° S 08:07:52 18° SW 08:11:11 10° WSW visible
30 Oct 5.7 07:27:30 10° S 07:31:35 24° SW 07:35:38 10° W visible
30 Oct 6.5 09:07:32 10° S 09:09:04 11° SSW 09:10:35 10° SW visible
30 Oct 6.3 12:20:43 10° SE 12:23:06 13° SSE 12:25:30 10° S visible
31 Oct 5.0 06:50:31 10° S 06:55:10 34° SW 06:59:47 10° WNW visible
31 Oct 6.2 08:30:16 10° S 08:32:57 14° SSW 08:35:37 10° WSW visible
31 Oct 6.7 11:45:55 10° SSE 11:47:01 11° SSE 11:48:07 10° S visible
01 Nov 6.0 07:53:11 10° S 07:56:45 19° SW 08:00:18 10° W visible
